SCP
0 0 0 -0 -0 -0 -0 -0 -0 -0 0 -0 -0 0 0 0 0 0 0 0 0 0 0 -0 0 0 0 0 0 0 -0 -0 -0 -0 -0 -0 0 0 -0 0 0 0 0
0 0 0 0 0 0 0 -0 -0 -0 -0 0 0 0 0 0 0 0 0 0 0 0 0 0 0 0 0 0 0 0 0 0 -0 -0 -0 -0 0 0 0 0 0 0 0
0 0 0 0 0 0 0 0 0 0 0 0 0 0 0 0 0 0 0 0 0 0 0 0 0 0 0 0 0 0 0 0 -0 -0 -0 -0 0 0 0 0 0 0 0
0 0 0 0 0 0 0 0 0 0 0 0 0 0 0 0 0 0 0 0 0 0 0 0 0 0 0 0 0 0 0 0 -0 -0 -0 -0 0 0 0 0 0 0 0
0 0 0 0 0 0 0 0 0 0 0 0 0 0 0 0 0 0 0 0 0 0 0 0 0 0 0 0 0 0 0 0 0 -0 -0 -0 0 0 0 0 0 0 0
0 0 0 0 0 0 0 0 0 0 0 0 0 0 0 0 0 0 0 0 0 0 0 0 0 0 0 0 0 0 0 0 0 0 0 0 0 0 0 0 0 0 0
0 0 0 0 0 0 0 0 0 0 0 0 0 0 0 0 0 0 0 0 0 0 0 0 0 0 0 0 0 0 0 0 0 0 0 0 0 0 0 0 0 0 -0
0 0 0 0 0 0 0 0 0 0 0 0 0 0 0 0 0 0 0 0 0 0 0 0 0 0 0 0 0 0 0 0 0 0 0 0 0 0 0 0 0 0 0
0 0 0 0 0 0 0 0 0 0 0 0 0 0 0 0 0 0 0 0 0 0 0 0 0 0 0 0 0 0 0 0 0 0 0 0 0 0 0 0 0 0 0
0 0 0 0 0 0 0 0 0 0 0 0 0 0 0 0 0 0 0 0 0 0 0 0 0 0 0 0 0 0 0 0 0 0 0 0 0 0 0 0 0 0 0
0 0 0 0 0 0 0 0 0 0 0 0 0 0 0 0 0 0 0 0 0 0 0 0 0 0 0 0 0 0 0 0 0 0 0 0 0 0 0 0 0 0 0
0 0 0 0 0 0 0 0 0 0 0 0 0 0 0 0 0 0 0 0 0 0 0 0 0 0 0 0 0 0 0 0 0 0 0 0 0 0 0 0 0 0 0
0 0 0 0 0 0 0 0 0 0 0 0 0 0 0 0 0 0 0 0 0 0 0 0 0 0 0 0 0 0 0 0 0 0 0 0 0 0 0 0 0 0 0
0 0 0 0 0 0 0 0 0 0 0 0 0 0 0 0 0 0 0 0 0 0 0 0 0 0 0 0 0 0 0 0 0 0 0 0 0 0 0 0 0 0 0
0 0 0 0 0 0 0 0 0 0 0 0 0 0 0 0 0 0 0 0 0 0 0 0 0 0 0 0 0 0 0 0 0 0 0 0 0 0 0 0 0 0 0
0 0 0 0 0 0 0 0 0 0 0 0 0 0 0 0 0 0 0 0 0 0 0 0 0 0 0 0 0 0 0 0 0 0 0 0 0 0 0 0 0 0 0
0 0 0 0 0 0 0 0 0 0 0 0 0 0 0 0 0 0 0 0 0 0 0 0 0 0 0 0 0 0 0 0 0 0 0 0 0 0 0 0 0 0 0
0 0 0 0 0 0 0 0 0 0 0 0 0 0 0 0 0 0 0 0 0 0 0 0 0 0 0 0 0 0 0 0 0 0 0 0 0 0 0 0 0 0 0
0 0 0 0 0 0 0 0 0 0 0 0 0 0 0 0 0 0 0 0 0 0 0 0 0 0 0 0 0 0 0 0 0 0 0 0 0 0 0 0 0 0 0
0 0 0 0 0 0 0 0 0 0 0 0 0 0 0 0 0 0 0 0 0 0 0 0 0 0 0 0 0 0 0 0 0 0 0 0 0 0 0 0 0 0 0
0 0 0 0 0 0 0 0 0 0 0 0 0 0 0 0 0 0 0 0 0 0 0 0 0 0 0 0 0 0 0 0 0 0 0 0 0 0 0 0 0 0 0
0 0 0 0 0 0 0 0 0 0 0 0 0 0 0 0 0 0 0 0 0 0 0 0 0 0 0 0 0 0 0 0 0 0 0 0 0 0 0 0 0 0 0
0 0 0 0 0 0 0 0 0 0 0 0 0 0 0 0 0 0 0 0 0 0 0 0 0 0 0 0 0 0 0 0 0 0 0 0 0 0 0 0 0 0 0
0 0 0 0 0 0 0 0 0 0 0 0 0 0 0 0 0 0 0 0 0 0 0 0 0 0 0 0 -0 0 -0 -0 0 0 0 0 0 0 0 0 0 0 0
0 0 0 0 0 0 0 0 0 0 0 0 0 0 0 0 0 0 0 0 0 0 0 0 0 0 0 -0 0 0 0 0 0 -0 0 0 0 0 0 0 0 0 0
0 0 0 0 0 0 0 0 0 0 0 0 0 0 0 0 0 0 0 0 -0 -0 0 0 0 0 0 0 0 0 0 0 0 0 0 0 0 0 0 0 0 -0 0
Wind_Speed_500mb
7 7 9 7 6 3 4 5 3 5 6 8 13 11 10 10 12 12 12 11 12 11 11 10 11 12 14 14 13 15 18 20 20 19 18 16 14 15 15 14 9 8 13
6 8 9 8 5 3 3 4 8 5 6 6 6 10 12 12 10 14 17 15 14 15 16 15 13 11 14 14 13 12 13 16 18 17 17 14 18 21 17 15 11 15 14
5 8 7 6 3 4 4 8 8 6 5 6 8 8 8 10 10 12 14 16 16 16 16 15 15 12 14 15 13 12 11 13 17 17 15 18 17 25 22 18 15 13 15
4 5 5 6 3 7 5 4 6 9 10 10 13 13 14 14 15 16 16 16 17 17 17 16 16 18 16 15 14 14 14 13 16 18 8 11 14 28 25 23 18 16 17
4 5 4 1 3 6 8 9 10 9 11 13 16 18 20 20 20 21 23 24 22 20 20 19 18 18 17 15 13 17 18 17 17 20 18 8 14 24 29 27 22 21 20
4 5 5 4 8 11 13 14 15 16 16 17 19 22 24 25 25 25 27 26 25 26 25 26 24 21 20 19 18 17 18 21 20 19 18 14 25 35 30 27 25 23 24
4 4 4 7 10 14 17 19 20 21 22 23 23 25 27 29 29 31 32 28 30 27 28 28 27 25 24 24 23 24 19 21 22 24 19 18 29 36 33 33 30 26 23
2 3 6 9 13 16 19 22 24 25 27 27 27 28 29 31 32 33 34 35 37 36 35 34 34 32 28 28 28 27 27 28 29 25 22 23 33 31 33 35 33 31 29
4 5 9 13 17 19 20 23 23 24 25 27 28 29 30 32 33 33 33 33 34 35 33 32 29 30 27 32 31 31 31 30 30 28 28 30 35 35 39 37 40 35 33
8 9 11 12 15 20 22 22 22 21 22 24 24 23 26 29 29 32 29 30 29 30 32 32 33 32 28 26 30 29 29 28 25 19 24 30 30 32 42 39 43 41 36
10 12 14 16 20 19 23 24 23 22 19 18 18 17 19 21 22 25 25 26 27 29 32 32 31 29 29 26 25 23 28 30 21 18 28 27 23 25 32 39 40 39 38
14 14 15 14 18 20 19 22 21 20 19 17 15 12 12 13 15 17 19 20 23 24 25 26 26 26 27 27 25 23 24 25 25 28 39 36 39 41 38 34 31 35 38
18 17 19 18 14 16 15 16 16 16 15 15 14 13 11 10 9 9 10 10 12 13 17 18 18 18 19 23 24 23 25 27 29 32 36 38 46 48 44 40 41 34 32
13 18 19 21 19 14 12 9 8 8 10 11 13 12 11 11 12 13 13 13 12 11 10 10 10 9 11 13 15 16 17 17 17 18 22 33 31 40 41 40 41 45 48
16 13 13 13 12 11 10 9 9 9 10 14 14 15 14 14 16 17 18 18 18 17 16 15 14 12 11 10 10 10 10 8 7 10 14 28 30 28 25 25 30 30 39
12 11 9 8 5 2 2 6 10 14 17 19 21 24 24 24 25 26 25 25 25 26 26 25 23 20 17 12 11 18 16 14 7 7 13 20 22 23 29 27 27 29 34
11 11 8 8 6 7 9 12 14 16 17 19 22 23 24 24 26 27 27 27 30 30 28 27 27 26 24 19 14 23 14 18 7 7 12 16 16 17 18 21 25 30 32
14 11 12 10 10 10 10 11 12 13 14 16 18 20 22 23 23 24 25 27 29 28 28 27 28 30 31 22 24 27 18 14 13 16 22 24 22 21 21 20 21 21 25
14 13 15 14 12 11 9 9 10 11 13 15 16 18 21 21 22 23 26 27 28 29 29 31 30 32 34 24 26 24 14 24 25 21 29 36 32 30 28 26 24 22 23
17 15 14 14 12 10 9 8 8 9 12 14 16 18 20 21 22 23 24 25 26 29 31 32 32 34 38 30 23 24 7 25 29 21 30 41 38 38 35 33 31 33 33
24 22 18 15 12 10 7 4 4 7 11 13 16 19 20 21 22 24 25 26 28 31 36 37 36 34 36 37 21 21 16 14 27 22 29 28 41 37 36 35 35 38 40
30 29 25 20 17 13 9 5 2 6 9 12 15 18 20 21 24 25 28 30 31 33 34 37 39 40 41 41 34 20 8 3 18 18 29 32 44 37 38 35 39 46 51
33 31 28 24 19 15 12 9 6 5 8 14 15 17 20 23 26 28 30 31 33 34 37 39 40 40 41 38 39 28 12 12 21 7 27 31 42 36 31 27 35 45 52
35 32 30 25 21 17 15 12 9 5 3 6 11 15 19 23 26 28 29 30 32 33 34 36 36 37 35 37 32 30 23 15 10 21 31 39 43 44 30 32 41 48 56
39 38 32 27 24 21 16 13 11 7 5 7 10 13 17 21 24 26 27 28 29 31 33 33 33 34 34 33 32 29 25 10 13 19 27 56 43 44 31 34 38 48 56
41 43 39 34 31 25 21 15 11 7 5 6 9 12 15 18 22 25 27 28 29 29 30 32 32 31 31 29 27 26 27 26 28 26 37 50 49 46 35 30 36 49 56
Wind_Direction_500mb
212 118 172 179 192 137 106 66 70 79 60 59 37 25 6 356 344 336 333 334 331 329 340 351 351 344 329 336 357 5 13 22 25 31 33 39 33 33 29 46 67 350 356
174 137 163 182 212 255 314 322 3 26 17 24 7 17 14 7 347 333 323 319 319 317 318 323 339 331 325 322 333 341 355 8 15 19 30 43 10 4 0 0 338 336 349
148 150 160 181 205 271 318 330 332 290 305 312 321 312 322 336 348 350 337 324 320 319 315 309 301 321 326 320 311 313 328 346 2 6 34 29 343 332 352 354 360 358 357
100 112 140 213 251 281 303 332 329 301 286 279 290 296 302 302 303 303 306 320 323 326 322 312 307 290 292 305 305 303 300 319 336 353 6 75 302 310 325 342 345 346 346
101 85 82 103 319 332 349 351 353 353 327 312 296 295 291 289 292 292 294 299 304 306 308 305 306 307 300 287 280 284 291 291 304 333 343 16 304 295 300 320 329 335 339
64 37 30 344 323 324 327 329 328 325 317 311 304 296 293 291 292 291 290 290 290 294 297 299 299 297 295 291 282 283 275 283 278 317 333 321 294 297 295 305 316 321 322
82 18 350 314 315 316 319 320 318 313 308 303 297 291 289 287 285 281 281 286 286 288 287 287 290 291 286 284 285 277 271 268 276 290 300 297 295 294 300 306 301 302 309
88 15 340 330 316 317 316 314 313 311 306 300 295 291 288 286 283 280 278 276 279 286 287 287 287 282 280 277 273 276 274 271 279 285 283 279 276 279 296 303 310 299 295
9 358 352 344 335 326 326 324 323 318 311 303 295 290 286 283 283 282 281 280 278 278 282 286 293 306 293 274 268 268 270 275 281 290 294 287 281 288 288 299 304 306 296
333 342 344 340 343 334 331 329 333 330 323 314 307 296 287 286 288 286 287 284 282 278 279 280 281 288 286 292 280 273 273 278 289 303 319 283 283 288 285 293 298 299 301
322 332 338 343 337 340 333 335 337 337 336 330 319 307 296 291 288 290 290 288 284 281 281 282 282 276 273 270 281 281 272 268 262 241 260 265 266 269 280 287 298 302 298
330 327 329 338 336 335 336 333 335 337 338 341 341 328 313 310 303 298 294 290 288 289 289 289 285 280 273 270 268 258 257 265 265 259 259 263 269 270 281 295 303 301 297
305 315 317 329 342 329 331 332 339 342 350 358 1 358 6 5 354 338 328 317 306 296 290 287 285 281 275 272 270 269 265 261 258 263 266 265 266 279 282 285 283 291 298
293 314 318 324 327 323 322 327 338 356 6 14 22 25 27 34 36 33 30 29 23 20 14 4 348 331 310 299 287 285 278 275 277 289 297 270 270 272 271 275 275 278 285
283 288 295 299 304 322 339 0 12 27 35 41 39 40 40 47 44 40 35 33 32 29 26 28 27 26 18 13 7 2 341 336 355 31 320 285 287 288 290 290 300 289 277
259 265 271 268 259 246 70 67 68 70 66 64 62 59 57 58 58 55 52 50 49 46 43 42 36 32 23 22 43 50 46 55 85 181 273 307 313 305 290 297 298 301 300
242 234 229 204 164 121 96 86 79 74 70 65 61 59 57 54 54 50 49 47 47 45 43 48 47 41 35 40 65 73 51 75 69 1 356 0 355 344 333 322 314 313 310
237 219 193 171 148 129 110 92 81 71 62 58 54 51 50 47 46 44 43 42 41 37 37 37 42 40 34 45 67 84 60 79 45 38 41 26 24 19 13 2 351 343 332
223 198 183 172 156 138 115 91 69 55 48 45 44 44 43 40 39 37 37 37 36 33 33 35 35 36 34 44 78 77 80 56 43 53 60 41 38 33 32 29 22 13 3
219 210 192 181 164 142 116 83 62 48 44 42 39 41 42 40 40 39 40 39 37 35 36 36 38 39 35 40 86 88 60 63 32 62 45 40 35 34 35 35 36 33 27
215 208 200 194 185 173 141 108 57 38 39 39 40 40 41 41 42 43 42 41 39 37 36 34 34 36 43 46 85 92 41 34 4 33 19 29 27 28 29 31 32 29 23
214 208 204 201 197 199 183 168 92 64 51 44 45 44 45 45 43 40 39 38 38 38 37 37 36 36 38 38 42 55 75 253 357 26 2 17 16 19 22 25 26 23 17
215 212 208 204 199 191 176 158 125 84 52 35 40 44 43 41 38 36 35 34 34 33 33 34 34 33 37 38 41 50 26 360 355 320 358 7 6 18 22 23 23 18 14
219 216 213 207 201 192 187 183 153 163 67 50 46 42 42 39 36 33 31 31 30 30 30 31 32 32 29 33 38 42 37 34 337 329 345 355 6 13 17 23 15 10 12
214 216 214 210 206 198 194 177 163 154 114 71 54 45 39 37 32 29 27 26 26 25 25 25 26 26 24 24 22 18 30 54 324 336 326 342 2 12 11 17 4 3 7
215 217 211 208 211 205 201 194 188 165 126 79 50 40 33 27 26 21 19 17 18 18 18 17 18 16 16 15 15 11 7 2 349 349 330 337 346 2 5 7 352 358 357
Wind_Speed_850mb
7 7 9 7 6 3 4 5 3 5 6 8 13 11 10 10 12 12 12 11 12 11 11 10 11 12 14 14 13 15 18 20 20 19 18 16 14 15 15 14 9 8 13
6 8 9 8 5 3 3 4 8 5 6 6 6 10 12 12 10 14 17 15 14 15 16 15 13 11 14 14 13 12 13 16 18 17 17 14 18 21 17 15 11 15 14
5 8 7 6 3 4 4 8 8 6 5 6 8 8 8 10 10 12 14 16 16 16 16 15 15 12 14 15 13 12 11 13 17 17 15 18 17 25 22 18 15 13 15
4 5 5 6 3 7 5 4 6 9 10 10 13 13 14 14 15 16 16 16 17 17 17 16 16 18 16 15 14 14 14 13 16 18 8 11 14 28 25 23 18 16 17
4 5 4 1 3 6 8 9 10 9 11 13 16 18 20 20 20 21 23 24 22 20 20 19 18 18 17 15 13 17 18 17 17 20 18 8 14 24 29 27 22 21 20
4 5 5 4 8 11 13 14 15 16 16 17 19 22 24 25 25 25 27 26 25 26 25 26 24 21 20 19 18 17 18 21 20 19 18 14 25 35 30 27 25 23 24
4 4 4 7 10 14 17 19 20 21 22 23 23 25 27 29 29 31 32 28 30 27 28 28 27 25 24 24 23 24 19 21 22 24 19 18 29 36 33 33 30 26 23
2 3 6 9 13 16 19 22 24 25 27 27 27 28 29 31 32 33 34 35 37 36 35 34 34 32 28 28 28 27 27 28 29 25 22 23 33 31 33 35 33 31 29
4 5 9 13 17 19 20 23 23 24 25 27 28 29 30 32 33 33 33 33 34 35 33 32 29 30 27 32 31 31 31 30 30 28 28 30 35 35 39 37 40 35 33
8 9 11 12 15 20 22 22 22 21 22 24 24 23 26 29 29 32 29 30 29 30 32 32 33 32 28 26 30 29 29 28 25 19 24 30 30 32 42 39 43 41 36
10 12 14 16 20 19 23 24 23 22 19 18 18 17 19 21 22 25 25 26 27 29 32 32 31 29 29 26 25 23 28 30 21 18 28 27 23 25 32 39 40 39 38
14 14 15 14 18 20 19 22 21 20 19 17 15 12 12 13 15 17 19 20 23 24 25 26 26 26 27 27 25 23 24 25 25 28 39 36 39 41 38 34 31 35 38
18 17 19 18 14 16 15 16 16 16 15 15 14 13 11 10 9 9 10 10 12 13 17 18 18 18 19 23 24 23 25 27 29 32 36 38 46 48 44 40 41 34 32
13 18 19 21 19 14 12 9 8 8 10 11 13 12 11 11 12 13 13 13 12 11 10 10 10 9 11 13 15 16 17 17 17 18 22 33 31 40 41 40 41 45 48
16 13 13 13 12 11 10 9 9 9 10 14 14 15 14 14 16 17 18 18 18 17 16 15 14 12 11 10 10 10 10 8 7 10 14 28 30 28 25 25 30 30 39
12 11 9 8 5 2 2 6 10 14 17 19 21 24 24 24 25 26 25 25 25 26 26 25 23 20 17 12 11 18 16 14 7 7 13 20 22 23 29 27 27 29 34
11 11 8 8 6 7 9 12 14 16 17 19 22 23 24 24 26 27 27 27 30 30 28 27 27 26 24 19 14 23 14 18 7 7 12 16 16 17 18 21 25 30 32
14 11 12 10 10 10 10 11 12 13 14 16 18 20 22 23 23 24 25 27 29 28 28 27 28 30 31 22 24 27 18 14 13 16 22 24 22 21 21 20 21 21 25
14 13 15 14 12 11 9 9 10 11 13 15 16 18 21 21 22 23 26 27 28 29 29 31 30 32 34 24 26 24 14 24 25 21 29 36 32 30 28 26 24 22 23
17 15 14 14 12 10 9 8 8 9 12 14 16 18 20 21 22 23 24 25 26 29 31 32 32 34 38 30 23 24 7 25 29 21 30 41 38 38 35 33 31 33 33
24 22 18 15 12 10 7 4 4 7 11 13 16 19 20 21 22 24 25 26 28 31 36 37 36 34 36 37 21 21 16 14 27 22 29 28 41 37 36 35 35 38 40
30 29 25 20 17 13 9 5 2 6 9 12 15 18 20 21 24 25 28 30 31 33 34 37 39 40 41 41 34 20 8 3 18 18 29 32 44 37 38 35 39 46 51
33 31 28 24 19 15 12 9 6 5 8 14 15 17 20 23 26 28 30 31 33 34 37 39 40 40 41 38 39 28 12 12 21 7 27 31 42 36 31 27 35 45 52
35 32 30 25 21 17 15 12 9 5 3 6 11 15 19 23 26 28 29 30 32 33 34 36 36 37 35 37 32 30 23 15 10 21 31 39 43 44 30 32 41 48 56
39 38 32 27 24 21 16 13 11 7 5 7 10 13 17 21 24 26 27 28 29 31 33 33 33 34 34 33 32 29 25 10 13 19 27 56 43 44 31 34 38 48 56
41 43 39 34 31 25 21 15 11 7 5 6 9 12 15 18 22 25 27 28 29 29 30 32 32 31 31 29 27 26 27 26 28 26 37 50 49 46 35 30 36 49 56
Wind_Direction_850mb
212 118 172 179 192 137 106 66 70 79 60 59 37 25 6 356 344 336 333 334 331 329 340 351 351 344 329 336 357 5 13 22 25 31 33 39 33 33 29 46 67 350 356
174 137 163 182 212 255 314 322 3 26 17 24 7 17 14 7 347 333 323 319 319 317 318 323 339 331 325 322 333 341 355 8 15 19 30 43 10 4 0 0 338 336 349
148 150 160 181 205 271 318 330 332 290 305 312 321 312 322 336 348 350 337 324 320 319 315 309 301 321 326 320 311 313 328 346 2 6 34 29 343 332 352 354 360 358 357
100 112 140 213 251 281 303 332 329 301 286 279 290 296 302 302 303 303 306 320 323 326 322 312 307 290 292 305 305 303 300 319 336 353 6 75 302 310 325 342 345 346 346
101 85 82 103 319 332 349 351 353 353 327 312 296 295 291 289 292 292 294 299 304 306 308 305 306 307 300 287 280 284 291 291 304 333 343 16 304 295 300 320 329 335 339
64 37 30 344 323 324 327 329 328 325 317 311 304 296 293 291 292 291 290 290 290 294 297 299 299 297 295 291 282 283 275 283 278 317 333 321 294 297 295 305 316 321 322
82 18 350 314 315 316 319 320 318 313 308 303 297 291 289 287 285 281 281 286 286 288 287 287 290 291 286 284 285 277 271 268 276 290 300 297 295 294 300 306 301 302 309
88 15 340 330 316 317 316 314 313 311 306 300 295 291 288 286 283 280 278 276 279 286 287 287 287 282 280 277 273 276 274 271 279 285 283 279 276 279 296 303 310 299 295
9 358 352 344 335 326 326 324 323 318 311 303 295 290 286 283 283 282 281 280 278 278 282 286 293 306 293 274 268 268 270 275 281 290 294 287 281 288 288 299 304 306 296
333 342 344 340 343 334 331 329 333 330 323 314 307 296 287 286 288 286 287 284 282 278 279 280 281 288 286 292 280 273 273 278 289 303 319 283 283 288 285 293 298 299 301
322 332 338 343 337 340 333 335 337 337 336 330 319 307 296 291 288 290 290 288 284 281 281 282 282 276 273 270 281 281 272 268 262 241 260 265 266 269 280 287 298 302 298
330 327 329 338 336 335 336 333 335 337 338 341 341 328 313 310 303 298 294 290 288 289 289 289 285 280 273 270 268 258 257 265 265 259 259 263 269 270 281 295 303 301 297
305 315 317 329 342 329 331 332 339 342 350 358 1 358 6 5 354 338 328 317 306 296 290 287 285 281 275 272 270 269 265 261 258 263 266 265 266 279 282 285 283 291 298
293 314 318 324 327 323 322 327 338 356 6 14 22 25 27 34 36 33 30 29 23 20 14 4 348 331 310 299 287 285 278 275 277 289 297 270 270 272 271 275 275 278 285
283 288 295 299 304 322 339 0 12 27 35 41 39 40 40 47 44 40 35 33 32 29 26 28 27 26 18 13 7 2 341 336 355 31 320 285 287 288 290 290 300 289 277
259 265 271 268 259 246 70 67 68 70 66 64 62 59 57 58 58 55 52 50 49 46 43 42 36 32 23 22 43 50 46 55 85 181 273 307 313 305 290 297 298 301 300
242 234 229 204 164 121 96 86 79 74 70 65 61 59 57 54 54 50 49 47 47 45 43 48 47 41 35 40 65 73 51 75 69 1 356 0 355 344 333 322 314 313 310
237 219 193 171 148 129 110 92 81 71 62 58 54 51 50 47 46 44 43 42 41 37 37 37 42 40 34 45 67 84 60 79 45 38 41 26 24 19 13 2 351 343 332
223 198 183 172 156 138 115 91 69 55 48 45 44 44 43 40 39 37 37 37 36 33 33 35 35 36 34 44 78 77 80 56 43 53 60 41 38 33 32 29 22 13 3
219 210 192 181 164 142 116 83 62 48 44 42 39 41 42 40 40 39 40 39 37 35 36 36 38 39 35 40 86 88 60 63 32 62 45 40 35 34 35 35 36 33 27
215 208 200 194 185 173 141 108 57 38 39 39 40 40 41 41 42 43 42 41 39 37 36 34 34 36 43 46 85 92 41 34 4 33 19 29 27 28 29 31 32 29 23
214 208 204 201 197 199 183 168 92 64 51 44 45 44 45 45 43 40 39 38 38 38 37 37 36 36 38 38 42 55 75 253 357 26 2 17 16 19 22 25 26 23 17
215 212 208 204 199 191 176 158 125 84 52 35 40 44 43 41 38 36 35 34 34 33 33 34 34 33 37 38 41 50 26 360 355 320 358 7 6 18 22 23 23 18 14
219 216 213 207 201 192 187 183 153 163 67 50 46 42 42 39 36 33 31 31 30 30 30 31 32 32 29 33 38 42 37 34 337 329 345 355 6 13 17 23 15 10 12
214 216 214 210 206 198 194 177 163 154 114 71 54 45 39 37 32 29 27 26 26 25 25 25 26 26 24 24 22 18 30 54 324 336 326 342 2 12 11 17 4 3 7
215 217 211 208 211 205 201 194 188 165 126 79 50 40 33 27 26 21 19 17 18 18 18 17 18 16 16 15 15 11 7 2 349 349 330 337 346 2 5 7 352 358 357